Regional Weather Roundup
Issued by NWS

Home | Current Version | Previous Version | Graphics & Text | Print | Product List | Glossary Off
Versions: 1 2 3 4 5 6 7 8 9 10 11 12 13 14 15 16 17 18 19 20 21 22 23 24 25 26 27 28 29 30 31 32 33 34 35 36 37 38 39 40 41 42 43 44 45 46 47 48 49 50

000
ASUS43 KDMX 240406
RWRIA

WEATHER ROUNDUP FOR IOWA
NATIONAL WEATHER SERVICE DES MOINES IA
1000 PM CST MON JAN 23 2017

NOTE: "FAIR" INDICATES FEW OR NO CLOUDS BELOW 12,000 FEET WITH NO
SIGNIFICANT WEATHER AND/OR OBSTRUCTIONS TO VISIBILITY.

* - THESE STATIONS ARE NOT NWS STATIONS...THUS NOT UNDER NWS
QUALITY CONTROL.  THEY ALSO DO NOT REPORT WEATHER SUCH
AS PRECIPITATION OR FOG.

IAZ001>003-012>014-020>022-031>034-043>046-240500-
   NORTHWEST IOWA

CITY           SKY/WX    TMP DP  RH WIND       PRES   REMARKS
CARROLL *      CLOUDY    32  32 100 SE6       29.85S WCI  26
CHEROKEE *     CLOUDY    32  31  96 CALM      29.85R
DENISON *      CLOUDY    32  28  86 S5G12     29.83R WCI  27
LE MARS *      CLOUDY    32  30  93 CALM      29.85S
ORANGE CITY *  CLOUDY    32  30  93 CALM      29.84R
SHELDON *      CLOUDY    32  32 100 SE6       29.82S WCI  26
SIOUX CITY     CLOUDY    33  30  88 E6        29.83F WCI  28
SPENCER        CLOUDY    32  30  92 S3        29.85R
STORM LAKE *   CLOUDY    32  30  93 SE5       29.84S WCI  27
$$

IAZ055>058-069>071-079>083-090>094-240500-
   SOUTHWEST IOWA

CITY           SKY/WX    TMP DP  RH WIND       PRES   REMARKS
ATLANTIC *     CLOUDY    32  30  93 S5        29.85R WCI  27
AUDUBON *      CLOUDY    32  28  86 E6        29.85S WCI  26
CLARINDA *     CLOUDY    32  30  93 SE5       29.87R WCI  27
COUNCIL BLFS * CLOUDY    30  32 100 SE10      29.83S WCI  21
CRESTON *      CLOUDY    32  30  93 SE6       29.85S WCI  26
HARLAN  *      CLOUDY    32  32 100 SE8       29.88S WCI  25
LAMONI         CLOUDY    31  28  89 SE5       29.84F WCI  26
RED OAK *      CLOUDY    32  30  93 SE7       29.86R WCI  26
SHENANDOAH *   CLOUDY    30  28  93 E5        29.86R WCI  25
$$

IAZ047>049-059>061-072>074-084-240500-
   CENTRAL IOWA

CITY           SKY/WX    TMP DP  RH WIND       PRES   REMARKS
AMES           CLOUDY    32  32 100 SW3       29.87R
ANKENY *       CLOUDY    32  30  93 CALM      29.89R
BOONE *        CLOUDY    32  32 100 CALM      29.86R
CHARITON *     CLOUDY    32  30  93 CALM      29.87R
DES MOINES     CLOUDY    33  28  81 S3        29.88R
GRINNELL*      CLOUDY    32  29  89 CALM      29.86S
KNOXVILLE *    CLOUDY    32  28  86 CALM      29.86S
MARSHALLTOWN   CLOUDY    32  30  92 CALM      29.85R
NEWTON *       CLOUDY    32  30  93 CALM      29.87R
PELLA *        CLOUDY    32  29  88 CALM      29.89R
PERRY *        CLOUDY    33  31  93 CALM      29.87S
$$

IAZ004>006-015-016-023>025-035-036-240500-
   NORTH CENTRAL IOWA

CITY           SKY/WX    TMP DP  RH WIND       PRES   REMARKS
ALGONA *       CLOUDY    32  32 100 CALM      29.86R
CLARION *      CLOUDY    32  32 100 CALM      29.86R
ESTHERVILLE    CLOUDY    31  29  92 CALM      29.84R
FORT DODGE *   CLOUDY    32  27  80 CALM      29.87R
MASON CITY     CLOUDY    31  27  85 N6        29.85S WCI  25
FOREST CITY *  CLOUDY    32  32 100 N3        29.85R
WEBSTER CITY * CLOUDY    32 N/A N/A CALM      29.85R
IOWA FALLS *   CLOUDY    33  29  86 NE3       29.85S
$$

IAZ007>011-017>019-026>030-037>042-050>054-066-240500-
   NORTHEAST IOWA

CITY           SKY/WX    TMP DP  RH WIND       PRES   REMARKS
CEDAR RAPIDS   CLOUDY    31  30  96 S3        29.85R
CHARLES CITY * CLOUDY    32  30  93 CALM      29.85S
CLINTON *      CLOUDY    34  33  96 CALM      29.85S
DECORAH *      CLOUDY    32  30  93 CALM      29.83R
DUBUQUE        CLOUDY    33  31  92 N3        29.83S
MONTICELLO *   CLOUDY    34  30  86 CALM      29.84S
OELWEIN *      CLOUDY    34  30  86 N3        29.84S
WATERLOO       CLOUDY    32  28  85 CALM      29.85S
$$

IAZ064-065-067-068-078-240500-
   EAST CENTRAL IOWA

CITY           SKY/WX    TMP DP  RH WIND       PRES   REMARKS
DAVENPORT      CLOUDY    33  32  96 W5        29.85S WCI  29
IOWA CITY      CLOUDY    33  30  88 SW3       29.88R
MUSCATINE *    CLOUDY    34  30  86 CALM      29.88S
QUAD CITIES    CLOUDY    36  31  82 W6        29.86R WCI  31
$$

IAZ062-063-075>077-085>089-095>099-240500-
   SOUTHEAST IOWA

CITY           SKY/WX    TMP DP  RH WIND       PRES   REMARKS
BURLINGTON     CLOUDY    34  30  85 CALM      29.86S
FAIRFIELD *    CLOUDY    32  28  86 CALM      29.86F
FORT MADISON * CLOUDY    34  30  86 CALM      29.88S
KEOKUK *       CLOUDY    34 N/A N/A NW3       29.87S
OSKALOOSA *    CLOUDY    32  29  90 CALM      29.87S
CENTERVILLE *  CLOUDY    32  32 100 CALM      29.88S
OTTUMWA        CLOUDY    33  27  78 CALM      29.86S
WASHINGTON *   CLOUDY    32  30  93 NW7       29.88R WCI  26
$$

ABBREVIATIONS USED IN REMARKS
   TC - TEMPERATURES IN CELSIUS
  WCI - WIND CHILL INDEX
   HX - HEAT INDEX
  VSB - VISIBILITY
$$





USA.gov is the U.S. government's official web portal to all federal, state and local government web resources and services.